This demonstration page uses our WeatherBlox Daily Observations layout. Learn more.

Left ArrowRight Arrow

Hourly Observations for November 15, 2015

Temp ( °F °C ) Dew Point ( °F °C ) Humidity (%) Winds ( mph kmh ) Pressure ( in mb ) Visibility ( mi km ) Precip ( " mm )
12:51 am 00:51 Clear 52 11.1 32 undefined 47 47 N N/A 29.91 1013 10 16 N/A
1:51 am 01:51 Partly Cloudy 52 11.1 33 0.6 49 49 NE 3 6 29.91 1013 10 16 N/A
2:51 am 02:51 Clear 53 11.7 33 0.6 47 47 ESE 6 9 29.88 1012 10 16 N/A
3:51 am 03:51 Cloudy 53 11.7 32 undefined 45 45 WNW 6 9 29.87 1012 10 16 N/A
4:51 am 04:51 Mostly Cloudy 53 11.7 34 1.1 48 48 NW 8 13 29.88 1012 10 16 N/A
5:51 am 05:51 Cloudy 54 12.2 37 2.8 53 53 WNW 9 15 29.90 1013 10 16 N/A
6:51 am 06:51 Cloudy 51 10.6 37 2.8 59 59 NW 7 11 29.93 1014 10 16 N/A
7:51 am 07:51 Cloudy with Light Rain 51 10.6 41 5 69 69 NW 10 17 29.98 1015 10 16 N/A
8:51 am 08:51 Mostly Cloudy 51 10.6 45 7.2 80 80 W 3 6 29.97 1015 10 16 N/A
9:51 am 09:51 Cloudy 55 12.8 45 7.2 69 69 N N/A 29.96 1015 10 16 N/A
10:51 am 10:51 Cloudy 56 13.3 43 6.1 62 62 N N/A 29.96 1015 10 16 N/A
11:51 am 11:51 Cloudy 57 13.9 43 6.1 60 60 N N/A 29.94 1014 10 16 N/A
12:51 pm 12:51 Mostly Cloudy 61 16.1 44 6.7 54 54 N N/A 29.88 1012 10 16 N/A
1:51 pm 13:51 Partly Cloudy 62 16.7 48 8.9 60 60 WNW 7 11 29.86 1011 10 16 N/A
2:51 pm 14:51 Mostly Cloudy 58 14.4 50 10 75 75 W 8 13 29.84 1011 10 16 N/A
3:51 pm 15:51 Mostly Cloudy 57 13.9 49 9.4 74 74 WNW 6 9 29.84 1010 10 16 N/A
4:51 pm 16:51 Cloudy with Light Rain 55 12.8 51 10.6 87 87 NNW 7 11 29.83 1010 10 16 0.01 0.25
5:51 pm 17:51 Cloudy with Light Rain 55 12.8 52 11.1 90 90 N N/A 29.81 1010 10 16 N/A
6:51 pm 18:51 Mostly Cloudy 54 12.2 52 11.1 93 93 SSE 5 7 29.80 1009 10 16 0.01 0.25
7:51 pm 19:51 Cloudy 53 11.7 53 11.7 100 100 NW 3 6 29.80 1009 10 16 N/A
8:51 pm 20:51 Cloudy 53 11.7 53 11.7 100 100 WNW 6 9 29.78 1009 9 14 N/A
9:51 pm 21:51 Mostly Cloudy 54 12.2 52 11.1 93 93 E 5 7 29.75 1008 10 16 N/A
10:51 pm 22:51 Mostly Cloudy 52 11.1 51 10.6 97 97 N 12 19 29.74 1007 8 13 N/A
11:51 pm 23:51 Cloudy 52 11.1 51 10.6 97 97 ENE 10 17 29.71 1006 10 16 N/A

Powered by AerisWeather